星链-30455 (STARLINK-30455 )

导读

STARLINK-30455是美国星链计划中的卫星,于2023年9月25日发射。星链是SpaceX打造的低轨卫星互联网星座,该卫星的发射是星链星座构建的一环,旨在为全球提供高速互联网服务,补充完善星座的覆盖范围与通信能力,推动全球空天地一体化网络建设。

Basic Information
目录编号:
57942
目录名称:
STARLINK-30455
国际标识:
2023-148H
轨道中心:
EARTH
卫星名称:
星链-30455
卫星全名:
星链-30455 (STARLINK-30455 )
卫星状态:
在轨 (已飞行997 天)
发射日期:
2023-09-25 UTC
国别 :
美国 (US)
星等 :
--
Orbit Information
数据来源 国际轨道数据
星历时间: 2026-06-18T15:31:08+0800
5小时前
查看轨道信息
半长轴: 6853.352km
偏心率: 0.0001161
轨道倾角: 53.161°
近地点辐角 83.109°
升交点赤经 277.097°
平近点角 277.004°
近地点: 474.419km
远地点: 476.011km
周期: 94.105分钟
每日圈数: 15.302003
Detailed Information
固有亮度:
5
最大亮度:
0.3
卫星平台:
Starlink v2.0 mini
覆盖范围:
全球
运营商:
太空探索技术公司
运营商所在国:
美国
制造商(研发单位):
太空探索技术公司
制造商所在国:
美国
使用方式:
暂无
Satellite Introduction
星链(Starlink)计划是由太空探索技术公司(SpaceX)提出的一个巨型低轨卫星互联网星座项目,计划在2019年至2024年间在太空搭建由约1.2万颗卫星组成的“星链”网络,其中1584颗将部署在地球上空550千米处的近地轨道,并从2020年开始工作。该卫星仍在工作。
2D Orbit Map
3D Orbit Map
Orbit Altitude Analysis Chart
Orbit Inclination Analysis Chart
Orbit Comprehensive Analysis Chart
View Comprehensive Chart